Dewpoint
68 70 69 69 69 70 70 69 69 69 70 70 70 70 70 70 70 70 69 69 70 70 70 70 70 70 70 69 69 70 70 70 70 70 70 70 70 70 70 70 70 70 70 70 70 70 70 70 70 71 70 70 69 69 69 69 69 69 68 69 70 69 69 70 70 70 70 70 70 70 70 70 70 70 69 69 68 69 69 70 70 69 69 69 70
68 69 69 70 70 69 69 69 69 69 69 70 70 70 70 70 70 69 69 69 69 69 70 70 70 70 70 69 69 69 69 69 69 70 70 69 69 70 70 70 70 70 70 70 70 70 70 70 70 70 70 70 69 69 68 68 68 68 67 69 69 69 69 70 70 69 70 70 70 70 70 70 69 69 69 69 69 69 69 69 70 68 68 70 70
69 70 70 70 69 70 69 69 69 69 69 69 70 70 70 70 70 69 69 69 69 69 69 70 70 70 69 69 69 69 69 69 69 69 69 69 69 69 70 70 70 70 70 70 70 69 70 69 69 69 70 69 69 69 69 68 68 69 69 69 69 69 69 70 70 69 69 70 70 70 69 69 68 68 68 69 69 69 70 69 69 69 68 71 70
68 71 70 69 70 69 69 68 69 69 69 70 70 70 70 70 70 70 69 69 69 69 69 69 69 69 69 69 69 69 69 69 69 68 69 69 69 69 69 70 70 70 70 70 69 69 69 69 69 69 70 69 69 69 69 69 68 68 68 69 69 69 69 69 68 68 69 69 69 69 70 70 69 69 69 68 69 70 70 70 69 69 70 70 70
70 68 70 70 68 69 68 68 69 69 69 70 70 70 70 70 70 69 69 69 69 69 69 69 69 69 69 69 69 69 69 69 68 68 69 69 68 69 69 70 70 70 69 69 69 69 69 68 68 69 69 69 68 69 68 68 67 68 67 68 69 69 69 68 67 68 69 69 69 68 70 69 69 69 68 69 69 69 70 70 69 70 70 70 70
66 67 68 67 66 67 69 69 69 69 69 69 69 69 69 69 69 69 69 69 69 69 69 69 69 69 69 69 68 68 68 68 69 69 69 68 69 69 69 70 70 70 69 69 69 68 69 68 68 69 69 69 68 68 68 68 68 68 68 69 69 70 69 67 67 68 69 69 69 70 71 69 68 69 69 69 69 69 70 69 70 70 69 69 69
66 66 67 67 66 67 69 69 69 69 69 69 69 69 69 69 69 69 69 69 68 69 69 69 68 68 68 68 69 68 68 68 68 68 69 69 68 69 68 69 69 69 68 70 69 69 69 68 69 69 69 68 69 68 68 67 67 68 68 69 69 69 68 67 67 67 66 68 68 69 71 70 68 69 69 70 70 69 68 69 69 69 69 69 68
66 66 66 66 65 68 69 69 69 69 69 69 69 69 69 69 69 69 68 69 69 69 69 68 68 68 68 68 68 68 68 68 68 68 68 69 69 69 68 68 68 69 69 69 69 69 68 68 69 69 69 69 69 68 68 67 68 68 68 68 69 68 68 67 67 66 66 69 69 70 70 70 69 68 70 70 70 69 69 69 69 69 69 69 68
65 66 66 67 68 70 69 69 69 69 69 69 69 68 69 69 69 69 69 69 69 69 69 69 68 68 68 68 67 68 68 68 68 69 68 68 69 69 69 68 67 68 69 69 69 68 68 69 69 69 69 69 68 68 68 67 67 67 68 68 68 68 67 67 67 67 68 69 70 69 69 70 69 68 69 70 70 68 69 68 69 69 69 68 68
65 66 64 64 68 69 69 69 68 68 68 68 68 68 68 69 69 69 69 69 69 69 69 69 69 68 68 67 67 68 68 68 68 68 68 68 68 68 68 68 68 68 69 69 68 68 69 68 68 68 69 69 68 68 67 67 67 67 68 68 68 68 66 67 67 67 69 69 69 69 70 69 69 69 69 70 68 69 68 68 68 69 69 69 68
64 62 63 63 67 68 68 68 68 68 68 68 68 67 68 68 68 68 68 68 68 68 68 68 68 68 68 68 67 67 67 67 68 68 68 68 67 67 67 68 69 69 69 69 68 69 68 68 68 68 69 68 68 68 67 67 67 67 68 68 68 67 67 67 68 68 69 69 70 70 69 69 69 69 69 70 67 69 68 68 69 69 70 69 68
61 62 64 64 67 68 68 68 68 68 68 68 68 68 68 68 67 68 68 68 68 67 67 67 68 68 68 68 68 67 67 67 67 68 68 67 67 67 67 66 68 68 68 68 68 68 67 67 68 68 68 68 68 67 67 67 67 68 68 68 68 68 68 68 68 68 69 69 69 69 70 69 68 69 68 68 70 70 70 69 69 70 69 69 68
62 62 64 66 66 69 69 69 69 68 68 68 68 67 67 67 67 67 67 66 67 67 67 67 67 67 68 68 68 68 67 67 67 68 67 67 68 67 67 67 68 68 68 68 68 68 67 67 67 68 68 68 68 67 67 67 67 67 68 69 68 68 68 68 69 69 69 69 68 68 69 69 69 69 68 69 69 69 70 69 70 70 70 69 68
59 61 63 64 66 68 69 69 69 69 69 69 68 68 67 67 67 67 66 66 67 67 67 67 68 67 68 68 68 68 67 67 68 68 67 67 68 68 67 68 67 68 68 67 67 67 67 67 67 68 67 68 67 67 67 67 67 67 68 69 68 68 69 68 68 69 68 68 69 70 69 69 68 69 68 68 69 69 69 70 69 70 70 69 68
60 61 62 63 64 66 69 69 69 69 69 68 68 68 67 67 66 66 66 66 66 66 66 66 67 67 67 67 67 67 68 67 67 67 67 67 67 67 68 68 67 67 68 67 67 67 67 67 67 67 67 67 67 67 67 67 67 67 67 68 69 69 69 70 67 68 68 69 69 69 69 68 67 68 69 69 69 69 70 69 69 69 69 68 68
64 62 61 64 63 64 65 66 69 68 68 67 67 67 67 67 66 66 66 65 64 64 64 65 65 65 65 66 67 68 68 68 67 67 67 66 67 68 68 67 68 67 67 67 67 67 67 67 67 67 67 67 67 67 68 67 67 67 67 68 69 69 70 69 68 68 68 68 67 68 68 67 68 68 68 68 68 68 69 69 69 69 69 68 68
64 64 63 63 63 63 65 66 66 66 67 68 67 67 67 66 66 64 64 63 63 62 62 63 64 64 65 65 65 67 68 68 68 67 67 67 67 68 68 68 68 67 67 67 67 67 67 67 67 67 67 67 67 67 67 68 68 68 68 68 69 69 69 70 69 67 69 67 67 68 68 68 69 68 69 69 69 67 68 69 69 69 69 68 68
63 61 63 63 63 65 66 65 65 65 66 66 66 67 66 66 64 63 62 61 61 60 60 60 60 61 62 62 63 64 66 67 67 67 66 67 67 67 68 68 68 67 68 67 67 67 67 67 67 67 67 67 67 67 68 68 68 69 68 68 69 69 69 69 68 67 67 67 65 68 67 67 69 69 68 69 67 67 67 68 67 67 68 67 68
61 61 63 63 63 62 62 62 64 64 65 65 64 66 65 63 62 61 60 60 60 60 59 59 59 59 60 61 62 62 63 64 65 65 66 67 67 66 67 68 68 68 68 67 68 68 68 68 68 67 67 67 67 67 68 68 68 68 68 69 69 68 69 70 68 68 67 66 67 67 67 68 69 69 69 67 67 67 67 67 67 68 67 67 67
62 61 61 62 61 59 60 58 60 62 62 63 64 64 63 62 61 60 60 60 59 59 59 59 58 58 58 59 60 61 60 62 64 62 63 65 67 67 67 67 67 67 67 67 68 68 68 68 68 67 67 66 67 68 68 68 68 68 68 69 69 68 70 68 68 68 66 65 67 66 69 68 68 68 67 66 66 66 66 67 67 67 68 67 67
61 61 61 60 59 60 59 57 59 60 61 62 63 61 61 59 57 58 58 59 59 58 58 58 58 58 57 57 58 61 62 61 62 62 62 64 67 67 67 67 67 67 67 67 67 67 68 67 68 68 68 68 68 69 68 68 68 68 68 68 69 69 66 67 66 65 66 66 66 70 68 68 68 68 68 67 66 67 67 67 67 66 67 67 68
58 58 60 59 59 58 57 57 56 59 59 59 59 59 58 57 59 59 58 58 58 58 59 59 58 59 58 59 59 59 59 60 63 63 62 64 67 67 67 67 67 67 67 67 67 67 67 68 67 67 68 68 69 69 69 68 68 69 69 69 69 65 66 67 67 65 65 66 66 69 69 68 67 68 68 68 67 68 67 68 67 67 67 67 67
56 55 57 59 58 57 57 56 57 59 59 59 58 58 59 59 57 58 58 58 59 59 59 59 57 57 59 58 58 58 58 59 61 62 64 64 65 66 67 66 66 66 66 66 67 67 67 68 68 68 69 69 68 66 65 66 68 68 68 68 66 65 67 67 68 66 65 66 66 69 69 68 68 68 68 68 68 68 68 68 68 68 67 67 67
55 53 55 58 57 56 58 58 59 60 57 57 57 58 58 59 57 57 57 57 58 58 58 59 58 59 58 59 58 58 57 59 59 64 64 61 63 65 66 66 67 66 66 66 67 65 66 66 66 66 68 67 65 63 63 64 64 66 67 65 65 66 67 67 66 67 67 67 67 69 68 68 68 68 68 67 68 68 68 68 68 68 68 67 67
55 55 55 57 57 58 58 58 59 59 58 56 57 56 59 56 56 56 57 55 56 57 57 59 59 58 57 57 54 58 57 57 59 61 60 60 60 61 61 64 65 66 65 66 66 67 67 67 66 66 65 65 64 65 65 65 66 65 65 65 66 67 67 67 66 67 68 68 69 68 68 68 68 68 68 68 68 68 68 68 68 68 68 68 68
56 54 54 56 56 55 58 58 59 59 58 57 57 58 58 57 58 55 55 56 56 56 58 58 57 58 58 58 58 58 58 56 60 60 59 60 59 59 60 63 64 66 66 64 64 65 65 66 66 64 64 64 65 66 66 65 65 64 63 64 64 66 66 65 66 66 67 67 68 67 67 67 68 68 69 68 68 68 68 68 68 68 67 68 68
54 54 55 56 57 58 58 58 57 59 59 59 57 56 56 58 57 56 55 55 55 56 55 57 57 58 59 60 59 56 56 56 59 58 56 59 59 58 58 61 62 63 65 63 64 64 64 65 65 65 64 63 64 65 65 65 66 63 64 61 64 66 66 65 65 66 66 66 66 66 66 67 67 67 68 69 69 68 68 68 68 69 68 68 68
56 56 56 57 58 58 59 59 58 58 58 57 56 54 56 58 58 58 57 56 55 55 56 56 57 55 59 60 60 59 57 58 60 59 60 60 59 59 60 58 59 61 65 63 62 62 62 63 65 65 65 66 65 66 65 65 64 65 64 64 65 65 66 65 66 66 66 66 66 67 66 67 67 67 68 68 68 68 68 68 68 68 68 68 68
59 58 57 57 58 58 59 58 57 58 57 57 54 54 56 58 58 57 57 56 57 57 57 58 56 54 58 59 60 60 59 59 60 59 59 59 59 59 58 59 60 59 62 61 63 64 63 63 64 64 65 66 65 66 66 66 65 65 63 64 65 66 66 66 66 64 65 65 66 67 67 66 67 67 68 68 68 68 68 68 68 68 68 67 67
60 59 58 58 57 57 57 58 57 57 58 58 56 57 59 58 58 59 58 58 57 58 57 54 56 53 54 57 58 58 58 57 58 57 55 58 57 59 60 59 58 58 58 60 59 60 63 62 62 64 64 65 65 65 65 66 64 66 65 65 65 66 66 65 65 65 66 66 67 67 67 67 67 67 68 68 67 68 68 68 68 68 68 67 67
59 58 58 57 59 58 59 58 58 59 59 58 57 59 61 59 58 58 58 57 57 57 55 55 54 54 56 59 58 57 58 57 57 56 56 57 57 58 58 58 56 57 58 58 61 61 62 63 64 64 64 64 64 64 65 65 65 65 65 65 65 66 66 67 66 66 67 66 66 67 68 67 66 67 67 67 67 67 67 67 68 68 67 67 67
58 59 58 58 58 60 59 59 59 58 58 59 59 60 61 59 59 58 57 58 58 56 53 54 54 54 57 59 59 58 58 57 58 57 58 56 56 56 56 58 58 58 59 58 58 61 62 64 64 65 65 65 64 64 65 63 64 64 65 65 66 65 65 66 66 66 67 67 67 68 68 69 67 66 66 66 66 67 67 68 67 67 66 66 66
58 59 59 60 61 61 60 59 59 59 59 60 60 61 61 60 59 59 58 58 57 57 56 54 55 55 58 58 59 58 59 56 58 58 57 54 56 57 57 59 59 60 60 61 61 60 60 59 61 61 60 61 61 62 63 64 64 64 65 65 66 65 66 65 66 66 66 67 66 68 68 68 68 67 67 67 67 66 67 67 67 66 66 66 66
58 59 61 61 61 60 59 60 59 58 61 61 61 60 62 61 59 57 58 57 56 55 55 54 54 52 55 58 57 57 57 58 57 58 55 55 58 57 56 57 58 60 60 61 59 59 58 59 59 59 59 59 59 61 60 62 63 63 64 66 65 66 65 65 65 65 66 67 68 68 67 67 68 68 68 67 68 67 66 67 67 67 67 66 67
58 60 62 62 62 61 60 60 59 59 61 60 63 62 62 61 60 57 57 58 58 57 54 55 53 53 53 53 56 57 56 56 57 57 57 55 55 56 56 55 58 59 58 59 59 59 59 59 58 58 59 58 58 59 59 61 63 64 64 65 66 65 66 65 64 63 64 67 68 68 68 66 66 68 67 67 68 67 66 66 66 67 67 67 67
60 61 61 63 61 61 60 59 59 59 61 61 63 63 63 63 61 56 58 58 56 57 55 56 55 50 52 54 56 57 55 56 57 57 57 55 54 54 55 57 57 56 58 58 59 57 58 59 59 59 58 57 58 57 59 61 62 63 64 65 65 66 65 64 63 62 65 67 67 67 67 66 67 67 67 67 68 68 67 66 66 66 67 67 67
61 62 62 63 61 62 61 60 59 59 61 62 62 62 62 63 61 60 59 58 56 55 55 55 55 55 54 51 56 57 56 56 57 56 57 56 54 55 55 56 56 55 55 56 55 56 57 57 59 58 59 57 56 58 59 60 62 63 65 64 64 66 65 66 65 65 65 65 66 65 66 66 66 64 67 66 67 67 67 66 66 66 67 67 66
60 62 62 62 61 61 60 60 60 60 61 62 62 63 62 62 59 59 59 57 58 57 56 54 55 53 54 53 55 56 56 56 57 56 57 55 55 55 55 57 55 55 56 55 55 55 57 58 57 59 58 57 56 57 58 59 60 62 64 64 64 64 65 66 66 65 63 64 65 64 65 66 66 66 65 66 66 66 67 67 67 67 67 66 66
61 62 62 62 60 60 61 60 60 61 61 62 63 63 62 62 61 61 60 59 58 57 57 56 55 56 55 56 56 56 56 56 56 57 57 54 54 55 55 56 55 54 55 54 54 55 56 57 57 58 58 57 57 58 59 59 60 61 61 63 65 65 65 65 65 65 65 65 64 63 64 64 65 64 65 66 66 67 67 66 66 66 66 66 66
61 62 62 62 60 60 61 61 61 61 60 61 61 59 59 57 57 59 57 58 58 57 58 56 57 54 56 56 56 57 54 56 55 56 57 56 54 54 56 55 55 54 53 53 53 52 55 56 56 56 57 56 57 58 60 59 60 61 61 64 65 65 64 63 63 62 61 62 62 62 63 64 64 64 64 67 67 67 67 67 66 65 66 66 66
62 63 63 61 60 59 60 60 61 61 60 59 59 58 57 58 59 59 58 59 59 59 60 59 57 56 57 56 56 56 56 56 55 54 56 55 56 55 56 55 54 54 54 54 54 55 55 56 55 56 55 56 56 59 60 60 59 60 61 62 63 63 62 61 61 61 61 60 61 61 62 63 63 63 64 65 66 66 66 67 66 66 66 66 66
62 63 62 61 60 60 60 60 60 60 60 60 59 59 59 57 57 57 58 56 57 57 57 59 59 59 58 57 57 56 57 56 56 55 56 54 56 53 55 54 54 54 54 53 54 54 54 55 55 53 54 53 54 57 60 60 56 57 59 59 60 61 61 61 60 60 61 62 62 61 63 63 63 63 64 64 65 66 66 66 66 66 66 66 66
61 61 61 61 61 61 60 61 60 60 60 61 60 59 60 60 60 60 58 58 61 61 59 60 61 60 59 58 57 57 55 54 55 55 53 55 55 54 54 54 54 54 52 53 54 53 53 54 53 52 51 53 54 56 58 59 56 57 58 57 54 55 59 59 60 60 60 61 61 60 60 61 62 63 63 62 61 64 65 65 66 67 67 66 65
60 60 60 60 60 60 61 61 60 61 61 61 60 61 61 61 62 63 63 61 60 61 63 61 60 60 59 59 58 58 56 56 54 51 53 55 56 55 55 54 54 55 53 53 53 51 54 53 53 53 53 52 52 54 56 58 58 58 53 52 55 53 51 57 56 58 59 61 60 59 59 60 61 61 62 61 62 62 64 64 64 66 67 66 66
60 59 60 60 59 60 61 61 60 61 62 61 62 62 62 62 62 63 62 63 63 60 59 59 59 58 59 59 58 57 56 56 56 54 51 54 56 55 54 55 54 54 52 51 52 52 52 50 53 53 52 52 50 53 54 57 58 58 57 55 52 50 52 54 55 57 58 58 59 59 59 60 60 60 61 62 63 64 64 64 64 65 67 66 66
60 60 60 60 60 60 60 61 61 61 62 62 63 63 62 61 60 59 59 58 56 57 56 57 57 58 58 61 59 58 57 57 56 55 52 54 56 55 55 53 54 53 52 51 51 52 51 53 51 51 52 53 54 52 52 55 56 57 58 58 58 56 55 55 54 52 57 58 57 58 58 59 59 59 60 61 62 65 65 65 66 66 66 66 65
59 60 60 61 61 60 61 61 61 61 62 63 63 63 63 61 61 60 59 59 57 58 60 61 61 60 61 61 60 60 58 58 57 56 55 56 56 55 55 53 52 53 53 52 51 52 50 51 52 52 52 52 53 51 51 52 53 54 55 57 57 57 57 54 53 51 51 56 57 55 57 58 59 58 59 61 61 64 65 65 65 65 65 65 65
58 58 61 61 62 61 61 62 62 61 62 63 63 64 62 61 61 61 60 59 59 59 60 61 63 63 62 62 60 59 59 58 58 56 55 55 55 54 54 54 52 53 50 50 51 50 50 51 53 53 53 53 53 51 52 52 51 52 53 54 54 55 55 56 55 53 50 48 50 54 57 56 58 57 58 60 60 62 64 64 65 65 64 64 64
60 60 58 61 62 63 63 63 63 63 63 64 63 63 63 62 61 60 59 59 60 60 59 59 60 63 62 61 61 60 60 60 58 58 57 55 56 55 55 54 54 54 51 52 52 49 51 53 54 53 53 53 53 53 52 51 52 51 51 52 51 51 51 53 53 53 49 49 48 49 52 53 57 57 57 58 61 61 61 61 60 61 62 64 64
61 61 60 60 61 62 63 63 64 64 65 66 65 64 63 63 62 61 60 59 59 60 60 59 60 61 61 61 60 59 59 59 59 58 58 54 55 55 54 54 55 54 52 54 53 52 51 52 52 53 54 53 53 53 52 52 53 52 51 50 50 49 49 49 50 50 50 50 46 48 52 52 50 52 56 56 58 59 60 60 60 60 60 60 63
63 62 60 57 60 62 63 63 65 65 65 65 65 65 65 63 62 61 60 59 60 60 60 60 60 60 60 60 60 59 59 59 59 59 58 56 57 55 55 53 55 55 54 54 53 51 51 52 53 52 52 52 52 52 52 53 52 52 52 52 50 50 49 48 49 49 50 50 48 49 51 50 50 52 53 54 57 57 58 59 59 59 60 60 60